This is the latest recevied weather packets stored in our database for station/object HB9MIR-13. If no packets are shown the sender has not sent any weather packets the latest 1 day(s).
| Time | Temp. | Humidity | Pressure | Rain* | Wind** | Luminosity | Snow |
|---|---|---|---|---|---|---|---|
| 1778065915 | 13.89° C | 81% | 1005.8 hPa | 0.25 mm | - | 244 W/m² | - |
| 1778065228 | 14.44° C | 81% | 1006.1 hPa | 0.51 mm | - | 437 W/m² | - |
| 1778063805 | 13.33° C | 84% | 1006 hPa | 0.51 mm | - | 215 W/m² | - |
| 1778062417 | 13.33° C | 88% | 1006 hPa | 0.51 mm | - | 277 W/m² | - |
| 1778060354 | 13.33° C | 82% | 1005.7 hPa | 0 mm | - | 94 W/m² | - |
| 1778059668 | 13.33° C | 82% | 1005.7 hPa | 0 mm | - | 144 W/m² | - |
| 1778058291 | 13.33° C | 83% | 1005.5 hPa | 0 mm | - | 177 W/m² | - |
| 1778056231 | 12.78° C | 81% | 1005.5 hPa | 0 mm | - | 161 W/m² | - |
| 1778054795 | 13.33° C | 82% | 1005.5 hPa | 0 mm | - | 192 W/m² | - |
| 1778054108 | 12.22° C | 86% | 1005.4 hPa | 0 mm | - | 236 W/m² | - |
| 1778053420 | 12.22° C | 86% | 1005.3 hPa | 0 mm | - | 235 W/m² | - |
| 1778052733 | 12.22° C | 88% | 1005.6 hPa | 0 mm | - | 227 W/m² | - |
| 1778052046 | 11.67° C | 88% | 1005.7 hPa | 0 mm | - | 211 W/m² | - |
| 1778051359 | 11.11° C | 89% | 1005.7 hPa | 0 mm | - | 205 W/m² | - |
| 1778049985 | 10° C | 94% | 1005.7 hPa | 0 mm | - | 160 W/m² | - |
| 1778049298 | 10° C | 94% | 1005.8 hPa | 0 mm | - | 151 W/m² | - |
| 1778048610 | 9.44° C | 96% | 1005.9 hPa | 0 mm | - | 129 W/m² | - |
| 1778045175 | 8.33° C | 99% | 1006.1 hPa | 0 mm | - | 55 W/m² | - |
| 1778044486 | 8.33° C | 99% | 1006.1 hPa | 0 mm | - | 50 W/m² | - |
| 1778043798 | 7.78° C | 99% | 1006.1 hPa | 0 mm | - | 35 W/m² | - |
| 1778041672 | 7.22° C | 99% | 1005.9 hPa | 0 mm | - | 14 W/m² | - |
| 1778040984 | 7.22° C | 99% | 1006.1 hPa | 0.25 mm | - | 7 W/m² | - |
| 1778038873 | 7.78° C | 99% | 1006.3 hPa | 0.25 mm | - | 0 W/m² | - |
| 1778038170 | 7.22° C | 99% | 1006.6 hPa | 0.25 mm | - | 0 W/m² | - |
| 1778036797 | 7.78° C | 99% | 1006.6 hPa | 0 mm | - | 0 W/m² | - |
* Rain latest hour (hover to see other rain measurements)
** Current wind speed in m/s (hover to see current wind gust speed)